Weather observations for the past three days for
New York, La Guardia Airport
Imperial (Metric)
Date Time (edt) Wind (mph) Vis. (mi.) Weather Sky Cond. Temperature (ºF) Relative Humidity Wind Chill (°F) Heat Index (°F) Pressure Precipitation (in)
Air Dwpt 6 hour altimeter (in) sea level (mb) 1 hr 3 hr 6 hr
Max. Min.
13 02:51 S 3 10.00 Fair CLR 66 59 78% 29.99 1015.5
13 01:51 S 6 10.00 Fair CLR 66.9 60.1 73 66.9 79% 29.99 1015.7
13 00:51 S 3 10.00 Fair CLR 66.9 59 76% 30 1015.9
12 23:51 S 5 10.00 Fair CLR 68 59 73% 30.01 1016.1
12 22:51 S 7 10.00 Fair CLR 68 57 68% 30.01 1016.1
12 21:51 S 12 10.00 A Few Clouds FEW070 69.1 54 59% 30.01 1016.1
12 20:51 S 13 10.00 A Few Clouds FEW070 70 55 59% 30 1015.7
12 19:51 Vrbl 7 G 18 10.00 Partly Cloudy SCT070 73 54 78.1 72 51% 29.99 1015.4
12 18:51 S 12 10.00 Mostly Cloudy BKN070 BKN250 73.9 54 50% 29.99 1015.4
12 17:51 W 9 G 16 10.00 Mostly Cloudy BKN065 BKN250 75.9 48.9 39% 78 29.98 1015.2
12 16:51 W 8 10.00 Mostly Cloudy BKN065 BKN250 75.9 48.9 39% 78 29.98 1015.2
12 15:51 NW 5 10.00 Mostly Cloudy BKN060 BKN130 BKN250 75.9 48.9 39% 78 29.99 1015.4
12 14:51 NW 12 10.00 Mostly Cloudy BKN065 BKN130 BKN250 75 51.1 43% 78 29.99 1015.6
12 13:51 W 7 10.00 Mostly Cloudy BKN055 BKN250 75 48.9 75 66.9 40% 77 30 1015.9
12 12:51 NW 6 10.00 Mostly Cloudy BKN055 BKN250 73.9 50 43% 30.02 1016.4
12 11:51 W 7 10.00 Mostly Cloudy FEW049 BKN055 BKN250 72 50 46% 30.03 1016.7
12 10:51 NW 3 10.00 Mostly Cloudy BKN048 BKN060 BKN250 71.1 50 47% 30.03 1017.0
12 09:51 NW 3 10.00 A Few Clouds FEW050 FEW250 71.1 50 47% 30.03 1016.9
12 08:51 NE 7 10.00 A Few Clouds FEW050 FEW250 68 51.1 55% 30.03 1016.8
12 07:51 NE 6 10.00 A Few Clouds FEW050 FEW250 66.9 52 66.9 63 59% 30.03 1016.8
12 06:51 N 5 10.00 A Few Clouds FEW050 FEW100 64.9 52 63% 30.03 1016.9
12 05:51 NE 5 10.00 A Few Clouds FEW060 FEW100 63 52 68% 30.02 1016.6
12 04:51 NE 7 10.00 A Few Clouds FEW060 64 51.1 63% 30 1015.9
12 03:51 NE 5 10.00 Mostly Cloudy BKN050 BKN060 64.9 51.1 61% 30 1015.7
12 02:51 NE 6 10.00 Partly Cloudy SCT050 SCT080 66 50 56% 29.99 1015.6
12 01:51 N 6 10.00 Mostly Cloudy FEW048 BKN080 66 50 70 66 56% 29.99 1015.6
12 00:51 NE 7 10.00 Overcast OVC070 66.9 50 55% 29.99 1015.6
11 23:51 NE 7 10.00 Overcast BKN046 OVC065 66.9 52 59% 30 1015.7
11 22:51 NE 6 10.00 Overcast BKN048 OVC060 68 52 57% 29.98 1015.1
11 21:51 NE 6 10.00 Mostly Cloudy BKN050 BKN090 70 51.1 51% 29.96 1014.6
11 20:51 S 3 10.00 Mostly Cloudy BKN047 BKN075 69.1 51.1 53% 29.95 1014.1
11 19:51 S 8 10.00 Mostly Cloudy FEW030 BKN046 BKN075 69.1 52 75.9 69.1 55% 29.94 1013.7
11 18:51 S 8 10.00 Mostly Cloudy BKN049 BKN060 BKN090 70 53.1 55% 29.92 1013.3
11 17:51 NE 5 10.00 Mostly Cloudy BKN050 BKN075 BKN250 72 48.9 44% 29.91 1012.9
11 16:51 E 6 10.00 Mostly Cloudy BKN050 BKN075 BKN250 73 50 44% 29.91 1012.9
11 15:51 Calm 10.00 Mostly Cloudy BKN055 BKN080 BKN250 71.1 48.9 46% 29.92 1013.1
11 14:51 NE 6 10.00 Mostly Cloudy SCT045 BKN065 BKN250 71.1 50 47% 29.92 1013.1
11 13:51 SE 6 10.00 Mostly Cloudy BKN048 BKN065 BKN250 70 51.1 73 64 51% 29.91 1012.8
11 12:51 NW 6 10.00 Mostly Cloudy BKN055 BKN100 BKN250 71.1 48.9 46% 29.92 1013.1
11 11:51 NE 5 10.00 Mostly Cloudy BKN046 BKN065 BKN110 BKN250 69.1 48.9 49% 29.91 1012.9
11 10:51 NE 7 10.00 Partly Cloudy FEW044 SCT070 SCT250 68 50 53% 29.92 1013.1
11 09:51 NE 5 10.00 Partly Cloudy FEW030 FEW070 SCT250 66.9 52 59% 29.92 1013.2
11 08:51 NE 7 10.00 Mostly Cloudy SCT070 BKN250 64.9 52 63% 29.92 1013.0
11 07:51 N 8 10.00 Mostly Cloudy SCT070 BKN250 64 50 66 61 60% 29.9 1012.6
11 06:51 NE 3 10.00 Mostly Cloudy SCT070 BKN250 62.1 50 65% 29.89 1012.2
11 05:51 N 6 10.00 Partly Cloudy FEW070 SCT250 62.1 51.1 67% 29.87 1011.6
11 04:51 N 9 10.00 A Few Clouds FEW070 FEW200 62.1 50 65% 29.85 1010.9
11 03:51 N 9 10.00 Partly Cloudy SCT070 63 50 63% 29.84 1010.5
11 02:51 NW 10 10.00 Mostly Cloudy BKN070 64 48.9 58% 29.83 1010.0
11 01:51 N 8 10.00 Partly Cloudy SCT070 66 48.9 72 64.9 54% 29.82 1009.9
11 00:51 NW 7 10.00 Mostly Cloudy BKN065 66 48.9 54% 29.81 1009.5
10 23:51 NW 9 10.00 Mostly Cloudy BKN070 66.9 48 51% 29.8 1009.2
10 22:51 NW 9 10.00 Partly Cloudy FEW060 SCT090 66.9 48 51% 29.78 1008.3
10 21:51 N 12 10.00 Mostly Cloudy BKN060 BKN090 69.1 48 47% 29.75 1007.4
10 20:51 NW 9 10.00 Mostly Cloudy FEW070 BKN090 71.1 48 44% 29.72 1006.4
10 19:51 NW 9 10.00 Mostly Cloudy FEW075 BKN090 72 48 75.9 72 43% 29.7 1005.8
10 18:51 NW 10 10.00 Mostly Cloudy FEW065 BKN085 73.9 48.9 41% 29.69 1005.2
10 17:51 NW 10 10.00 Mostly Cloudy FEW060 BKN085 75 48 39% 77 29.68 1004.9
10 16:51 NW 8 10.00 Mostly Cloudy SCT075 BKN090 73 46.9 40% 29.68 1004.9
10 15:51 Vrbl 7 10.00 Mostly Cloudy SCT060 BKN080 BKN250 75 46 36% 77 29.67 1004.6
10 14:51 W 7 G 20 10.00 Mostly Cloudy SCT060 BKN075 BKN250 75 46 36% 77 29.66 1004.5
10 13:51 NW 8 G 17 10.00 Overcast SCT060 OVC075 73 46.9 73 64 40% 29.65 1004.1
10 12:51 NW 14 G 22 10.00 Mostly Cloudy BKN060 71.1 46 41% 29.65 1003.9
10 11:51 W 12 G 25 10.00 Mostly Cloudy BKN050 71.1 45 39% 29.65 1004.0
10 10:51 W 15 G 24 10.00 Mostly Cloudy BKN049 69.1 45 42% 29.65 1004.1
10 09:51 NW 15 G 24 10.00 A Few Clouds FEW055 66.9 46 47% 29.64 1003.8
10 08:51 NW 13 G 22 10.00 A Few Clouds FEW065 64.9 46.9 52% 29.64 1003.7
10 07:51 NW 14 10.00 A Few Clouds FEW100 64 48 68 62.1 56% 29.64 1003.8
10 06:51 NW 15 10.00 A Few Clouds FEW100 63 48 58% 29.65 1003.9
10 05:51 NW 16 G 24 10.00 A Few Clouds FEW100 63 48 58% 29.63 1003.3
10 04:51 NW 13 G 25 10.00 A Few Clouds FEW250 64 48 56% 29.61 1002.8
10 03:51 W 14 10.00 A Few Clouds FEW100 FEW250 64.9 46.9 52% 29.61 1002.7
Date Time (edt) Wind (mph) Vis. (mi.) Weather Sky Cond. Air Dwpt Max. Min. Relative Humidity Wind Chill (°F) Heat Index (°F) altimeter (in) sea level (mb) 1 hr 3 hr 6 hr
6 hour
Temperature (ºF) Pressure Precipitation (in)